Wind_Speed
7 6 7 7 6 6 6 5 6 7 8 9 11 12 13 13 14 14 14 15 15 14 13 13 12 12 11 11 10 9 9 9 8 8 7 7 7 7 6 5 5 5 5
9 9 9 9 8 8 8 8 8 8 9 10 11 12 13 13 14 15 15 15 15 15 14 13 12 12 11 10 9 9 9 8 8 7 6 6 6 6 5 5 4 4 4
11 11 11 11 11 11 11 11 10 10 10 11 12 13 14 15 15 15 15 15 15 15 14 13 13 11 10 10 9 9 8 8 7 6 5 5 5 5 5 4 3 3 3
13 13 13 13 13 13 14 14 14 13 13 13 13 14 15 15 15 15 16 16 15 15 15 14 13 12 11 10 10 9 8 7 6 5 5 5 5 4 4 3 2 2 1
15 14 14 15 15 15 16 16 16 16 16 15 15 15 15 16 16 16 16 16 16 15 15 14 13 12 11 10 9 9 8 7 5 5 4 4 4 3 3 2 2 1 0
17 17 17 18 18 18 18 18 18 18 19 18 18 18 17 17 17 18 18 17 17 16 16 15 14 13 12 11 10 9 8 7 6 5 4 4 3 2 2 1 1 1 1
18 18 19 19 20 20 21 21 21 21 21 22 21 21 21 20 20 20 19 19 18 18 17 16 15 14 13 12 11 10 8 7 6 5 4 4 3 2 2 1 1 2 2
20 20 20 20 20 21 22 22 23 23 24 24 24 23 23 23 23 22 22 21 20 19 18 17 16 15 14 13 12 11 9 8 7 6 5 4 3 2 2 1 1 2 3
21 22 22 22 22 23 23 25 24 25 26 27 26 27 26 26 26 25 24 24 22 21 20 19 18 16 15 15 14 12 11 10 8 7 6 5 4 3 2 1 2 3 4
22 23 24 25 25 25 25 26 26 27 27 27 28 27 28 29 28 27 26 26 25 23 22 21 20 19 17 17 16 14 13 11 9 8 7 6 5 4 3 2 3 3 4
24 24 25 25 26 26 27 27 27 28 28 28 28 28 28 28 28 28 28 27 27 26 24 23 22 21 20 19 17 16 15 13 11 9 9 8 6 5 4 4 4 4 4
25 25 26 26 26 27 28 29 29 30 30 30 30 30 29 28 29 29 28 28 28 28 27 26 25 23 23 21 20 19 17 15 13 12 10 9 8 7 6 5 5 5 4
26 27 27 28 28 28 28 28 29 31 32 32 32 31 31 30 29 30 29 28 27 26 27 27 28 25 24 23 22 21 19 17 15 14 13 11 10 9 8 7 6 5 5
26 27 27 28 28 29 29 29 29 30 31 32 33 33 32 31 31 31 31 30 29 27 27 27 28 27 26 25 24 23 22 20 18 16 15 14 12 11 10 8 7 7 6
26 26 27 27 27 28 28 28 29 29 30 31 32 33 33 33 33 32 32 31 31 30 29 28 28 27 27 27 26 25 24 22 21 19 17 16 14 13 12 10 9 8 7
25 25 25 25 25 25 25 26 26 27 28 29 30 32 33 33 33 34 34 33 33 31 30 30 29 28 28 28 28 28 26 25 23 22 20 18 17 15 14 13 11 10 10
24 24 23 23 23 23 23 24 24 24 25 27 29 30 31 32 33 33 34 34 34 33 32 32 31 30 29 28 28 29 29 26 25 24 22 21 19 18 16 15 14 13 12
23 23 22 22 22 22 22 22 23 24 25 26 27 28 29 30 31 32 32 33 33 34 34 34 33 32 32 30 29 30 30 29 26 26 24 23 22 20 19 17 16 15 14
23 22 22 22 21 21 21 22 22 22 23 24 25 26 27 29 29 30 31 32 34 34 34 34 34 33 33 32 31 30 30 30 29 27 26 25 24 23 22 20 19 17 16
23 23 22 22 21 21 21 21 21 21 21 22 22 22 23 25 27 28 29 30 32 33 34 34 34 34 34 33 33 32 31 32 30 29 28 27 26 25 24 23 21 20 19
23 23 22 22 21 21 21 20 20 19 19 19 19 19 20 22 24 25 26 28 30 31 32 34 34 34 33 34 34 33 33 32 31 30 30 29 29 28 26 25 24 23 22
23 23 22 22 21 21 20 20 19 18 17 16 16 16 17 18 20 22 24 25 27 29 30 33 34 34 34 34 34 34 34 33 33 32 31 31 30 30 28 27 27 25 24
22 22 22 22 22 21 21 20 19 18 17 16 15 14 15 16 17 19 21 23 25 26 28 30 32 33 34 34 35 35 34 34 33 34 34 32 31 30 30 29 29 28 27
22 22 22 22 22 22 21 20 19 19 17 16 15 14 13 14 15 16 18 20 22 24 25 28 30 31 33 34 35 36 36 34 34 34 34 34 33 32 31 31 31 30 29
22 22 22 22 22 22 21 21 20 19 18 17 16 15 13 13 13 14 15 17 19 21 23 25 28 30 32 33 34 35 36 35 35 34 33 34 34 34 34 33 32 32 32
22 23 22 22 23 23 22 21 20 20 18 17 16 15 14 13 12 12 13 15 17 19 21 23 25 28 30 32 33 34 35 35 34 35 34 35 35 35 35 36 34 33 32
Wind_Direction
307 300 295 289 283 276 270 264 253 247 243 237 233 233 231 228 229 232 235 238 239 242 246 250 255 262 267 272 277 283 286 286 289 294 298 304 312 318 320 322 320 321 335
300 295 289 284 279 273 267 263 257 251 247 243 243 244 242 239 238 239 239 242 243 244 247 250 255 261 265 269 275 280 283 284 286 289 293 300 310 316 320 321 319 318 334
293 290 285 280 277 270 264 263 259 256 253 251 250 249 246 243 243 245 245 245 245 246 248 251 254 257 262 268 273 276 280 282 285 286 287 296 305 311 313 314 315 317 326
294 288 281 277 275 272 263 262 260 258 257 256 254 252 249 246 244 247 247 246 246 247 248 252 254 256 260 264 269 272 276 280 282 281 283 287 297 307 308 304 306 310 317
293 288 282 276 273 273 267 264 259 256 257 257 256 254 252 247 246 248 249 249 248 249 250 252 254 255 257 259 263 267 270 274 275 273 279 280 287 302 304 297 282 264 254
290 287 285 278 274 272 268 265 261 257 256 255 255 254 252 251 250 250 250 250 250 251 251 252 252 253 253 255 256 260 263 267 268 269 270 277 288 309 305 286 254 215 178
291 287 283 281 276 271 268 267 263 260 258 255 254 253 251 251 251 250 250 249 249 250 251 251 251 251 251 252 251 252 256 260 262 263 270 274 283 289 300 279 231 195 176
292 289 285 283 280 274 270 269 264 262 260 257 254 254 253 252 252 251 250 249 248 248 248 248 248 248 249 248 248 247 249 255 257 257 260 263 265 254 261 255 204 188 184
294 291 288 285 282 279 273 267 266 263 263 262 258 254 253 252 251 251 249 248 248 248 247 246 245 245 246 245 245 244 246 250 251 251 249 246 243 236 232 209 181 176 174
295 292 290 286 286 281 276 272 268 266 265 264 261 258 256 254 253 252 249 246 247 247 246 244 242 243 244 244 243 243 243 245 246 245 243 240 232 224 212 193 179 173 171
299 296 292 289 286 284 280 276 272 271 269 267 265 263 260 257 256 255 253 249 246 246 245 243 241 242 242 243 242 241 240 240 241 238 237 232 223 219 211 199 188 186 182
301 299 296 293 290 287 283 279 276 275 272 270 268 267 265 263 259 256 254 255 251 246 245 243 241 242 242 242 241 240 239 237 237 236 235 231 225 219 214 206 198 195 195
304 301 298 296 294 291 288 283 279 276 274 272 270 268 266 265 263 260 256 255 252 249 246 244 242 241 241 241 240 239 238 236 235 233 234 232 227 223 216 211 204 199 199
305 302 299 298 296 294 291 287 282 279 275 273 270 268 266 264 263 263 260 254 253 252 249 248 244 241 240 241 239 238 237 236 234 231 231 231 228 225 220 216 211 206 205
311 307 304 301 298 296 293 290 286 282 278 274 270 268 265 263 261 260 259 258 254 252 251 250 248 244 243 241 238 236 237 235 233 230 230 231 229 226 223 220 216 212 210
319 315 311 307 304 302 298 294 289 285 281 277 273 269 265 263 260 258 256 256 254 251 250 251 250 246 242 240 239 236 236 236 233 231 230 231 230 227 224 222 220 217 215
324 322 318 314 310 307 303 299 295 291 286 281 276 271 266 262 260 258 255 253 253 251 249 249 249 247 244 244 242 239 237 235 234 230 229 231 231 229 226 225 223 222 219
329 326 323 319 316 313 309 305 300 296 291 286 280 273 267 263 260 257 255 252 251 250 249 248 247 247 245 244 242 239 237 235 235 231 229 231 231 230 229 227 225 225 225
336 334 331 328 325 321 317 312 308 303 298 292 285 277 269 263 260 257 255 253 251 249 247 247 245 245 244 243 241 239 238 236 235 233 231 231 230 231 231 229 227 227 228
342 340 338 335 333 329 325 320 315 310 305 298 290 281 272 264 260 258 255 253 251 249 247 246 245 244 243 242 241 239 238 235 235 235 234 232 231 231 231 231 230 230 230
348 346 344 341 339 337 333 330 325 319 314 308 298 286 276 268 263 259 257 254 251 248 246 244 243 243 242 241 240 239 238 237 236 235 234 234 234 232 232 232 233 233 232
351 351 350 348 346 344 340 338 335 331 325 319 311 298 286 276 268 263 259 256 251 248 245 243 242 241 241 241 240 239 238 237 236 236 235 233 234 233 233 233 233 234 233
353 354 354 353 352 350 348 346 344 341 336 330 321 309 296 285 276 268 262 258 253 249 246 244 241 240 240 241 240 240 240 238 238 237 237 235 235 233 233 235 235 235 235
358 357 357 357 355 353 352 350 349 347 344 339 332 323 309 294 284 276 267 260 256 251 247 243 241 240 239 239 239 241 241 239 239 237 238 238 238 236 234 236 237 235 235
3 2 3 3 1 359 357 355 353 351 350 346 341 335 325 310 296 286 275 267 261 256 251 246 242 241 240 239 239 240 240 240 240 239 239 239 240 239 237 238 238 237 237
8 8 7 6 6 5 4 2 0 358 356 353 348 343 337 327 313 298 284 274 265 258 253 249 245 243 241 240 239 239 238 239 239 239 241 241 240 240 239 239 241 240 237
Height
5895 5894 5893 5893 5892 5892 5892 5891 5891 5891 5890 5890 5891 5891 5891 5892 5893 5893 5894 5894 5895 5895 5896 5896 5896 5896 5896 5896 5895 5895 5894 5894 5893 5893 5893 5892 5892 5892 5891 5891 5891 5890 5890
5894 5893 5892 5892 5891 5891 5891 5891 5890 5890 5890 5890 5890 5890 5890 5891 5891 5892 5892 5893 5893 5894 5894 5894 5895 5895 5895 5895 5894 5894 5893 5893 5892 5892 5892 5891 5891 5891 5891 5890 5890 5890 5890
5893 5892 5891 5891 5890 5890 5890 5889 5889 5889 5889 5889 5889 5889 5889 5889 5890 5890 5891 5891 5892 5892 5893 5893 5893 5893 5893 5893 5893 5893 5892 5892 5892 5891 5891 5890 5890 5890 5890 5890 5890 5890 5890
5892 5891 5890 5889 5889 5888 5888 5888 5887 5887 5887 5887 5887 5887 5887 5888 5888 5889 5889 5890 5890 5891 5891 5891 5892 5892 5892 5892 5892 5892 5891 5891 5891 5890 5890 5890 5889 5889 5890 5889 5889 5890 5890
5890 5889 5888 5887 5886 5886 5885 5885 5885 5885 5885 5885 5885 5885 5885 5885 5886 5886 5887 5888 5888 5889 5889 5890 5890 5890 5891 5891 5891 5890 5890 5890 5890 5890 5889 5889 5889 5889 5889 5889 5889 5889 5890
5887 5886 5885 5884 5884 5883 5882 5882 5882 5882 5882 5882 5882 5882 5883 5883 5883 5884 5885 5885 5886 5887 5887 5888 5888 5888 5889 5889 5889 5889 5889 5889 5889 5889 5888 5888 5888 5888 5888 5888 5889 5889 5890
5884 5883 5882 5881 5880 5879 5879 5879 5878 5878 5878 5879 5879 5879 5879 5880 5880 5881 5882 5882 5883 5884 5884 5885 5886 5886 5887 5887 5888 5888 5888 5888 5888 5888 5888 5887 5888 5888 5888 5888 5888 5889 5889
5880 5879 5878 5877 5876 5875 5875 5875 5874 5874 5874 5874 5875 5875 5876 5876 5877 5877 5878 5879 5880 5881 5881 5882 5883 5884 5885 5885 5886 5886 5887 5887 5887 5887 5887 5887 5887 5887 5888 5888 5888 5888 5889
5876 5875 5873 5872 5872 5871 5870 5870 5869 5869 5869 5869 5870 5870 5871 5872 5872 5873 5874 5875 5876 5877 5878 5879 5880 5881 5882 5883 5884 5885 5885 5886 5886 5887 5887 5887 5887 5887 5887 5888 5888 5888 5889
5872 5870 5868 5867 5866 5865 5865 5864 5864 5864 5863 5864 5864 5864 5865 5866 5867 5868 5869 5871 5872 5873 5874 5875 5877 5878 5879 5880 5881 5882 5883 5884 5885 5886 5886 5886 5886 5887 5887 5887 5887 5888 5889
5867 5865 5863 5862 5860 5859 5858 5858 5858 5858 5857 5858 5858 5859 5859 5860 5861 5863 5864 5865 5867 5868 5870 5871 5873 5874 5876 5877 5878 5879 5881 5882 5883 5884 5884 5885 5885 5886 5886 5887 5887 5888 5889
5862 5860 5857 5856 5854 5853 5852 5852 5851 5851 5851 5851 5852 5852 5853 5854 5855 5856 5858 5860 5861 5863 5865 5866 5868 5870 5872 5873 5875 5876 5878 5879 5881 5882 5883 5883 5884 5885 5885 5886 5887 5887 5888
5857 5854 5852 5850 5848 5847 5846 5845 5844 5844 5844 5844 5844 5845 5846 5847 5848 5850 5851 5853 5855 5857 5859 5861 5863 5865 5867 5869 5871 5873 5875 5877 5878 5880 5881 5882 5883 5883 5884 5885 5886 5887 5888
5852 5849 5847 5844 5842 5840 5839 5838 5837 5836 5836 5836 5836 5837 5838 5840 5841 5842 5844 5846 5848 5850 5853 5855 5857 5860 5862 5864 5867 5869 5871 5873 5875 5877 5878 5879 5880 5882 5883 5884 5885 5886 5887
5847 5844 5841 5838 5836 5834 5832 5830 5829 5829 5828 5828 5828 5829 5830 5831 5833 5834 5837 5839 5841 5844 5846 5848 5851 5854 5856 5859 5862 5864 5867 5869 5871 5873 5875 5876 5878 5880 5881 5882 5883 5885 5886
5842 5839 5836 5833 5830 5828 5825 5823 5822 5821 5820 5820 5820 5820 5821 5822 5824 5826 5828 5831 5834 5836 5839 5841 5844 5847 5850 5853 5856 5859 5862 5865 5867 5870 5872 5873 5875 5877 5879 5880 5882 5883 5884
5839 5835 5831 5828 5825 5822 5820 5817 5815 5814 5813 5812 5811 5811 5812 5813 5815 5817 5819 5822 5825 5828 5832 5835 5838 5841 5844 5847 5850 5853 5856 5859 5862 5865 5868 5870 5872 5874 5876 5878 5879 5881 5883
5835 5831 5828 5824 5821 5818 5815 5812 5810 5807 5806 5804 5803 5803 5803 5804 5806 5809 5811 5814 5817 5820 5824 5827 5831 5834 5837 5840 5843 5847 5850 5854 5857 5860 5863 5866 5868 5871 5873 5875 5877 5879 5880
5833 5829 5824 5821 5817 5814 5810 5807 5804 5802 5799 5797 5796 5795 5795 5796 5798 5800 5803 5805 5808 5812 5815 5819 5823 5827 5830 5834 5837 5841 5844 5847 5851 5854 5858 5861 5863 5866 5869 5871 5873 5876 5878
5831 5826 5822 5818 5814 5810 5807 5803 5800 5797 5794 5791 5789 5788 5788 5789 5790 5792 5794 5797 5800 5804 5807 5811 5815 5819 5823 5827 5830 5834 5837 5841 5845 5849 5852 5855 5858 5862 5865 5867 5870 5872 5874
5829 5824 5820 5816 5811 5807 5803 5800 5796 5792 5789 5786 5784 5782 5782 5782 5783 5785 5787 5789 5792 5796 5799 5803 5807 5811 5815 5819 5823 5827 5830 5834 5838 5842 5846 5850 5853 5856 5860 5863 5866 5868 5871
5828 5823 5819 5814 5810 5805 5801 5797 5793 5789 5786 5783 5780 5778 5777 5777 5778 5779 5780 5782 5785 5788 5791 5795 5799 5802 5807 5811 5815 5820 5824 5828 5832 5835 5839 5843 5847 5850 5854 5857 5861 5863 5866
5827 5822 5818 5813 5808 5804 5799 5795 5791 5787 5783 5780 5777 5775 5774 5773 5773 5773 5774 5776 5778 5781 5784 5787 5790 5795 5799 5803 5808 5812 5816 5821 5825 5829 5832 5836 5839 5844 5848 5851 5855 5858 5861
5827 5822 5817 5812 5807 5803 5798 5794 5790 5786 5782 5779 5775 5773 5771 5770 5769 5769 5769 5770 5772 5774 5777 5779 5783 5787 5791 5795 5800 5804 5809 5813 5817 5822 5825 5829 5833 5837 5842 5845 5848 5851 5855
5827 5822 5817 5812 5807 5802 5798 5793 5789 5785 5781 5777 5774 5771 5769 5767 5766 5765 5765 5765 5766 5768 5770 5773 5776 5779 5783 5788 5792 5796 5801 5805 5809 5814 5818 5822 5826 5830 5834 5838 5841 5845 5849
5827 5822 5817 5812 5808 5803 5798 5793 5788 5784 5780 5776 5773 5770 5767 5764 5763 5761 5761 5761 5761 5762 5764 5766 5769 5772 5776 5780 5784 5788 5793 5797 5802 5806 5810 5814 5818 5823 5827 5831 5834 5838 5841